Location: Nairn
(57.5833°N, 3.8667°W)
Time: 02:48:17
(UTC+00:00)

Vanguard 1 Rocket - Pass Details

Date: 01 December 2020
Orbit: 655 x 4221 km, 34.3° (Epoch: 20 January)

Event Time Altitude Azimuth Distance (km) Brightness Sun altitude
Exits shadow 05:34:31 17° 245° (WSW) 6,112 11.1 -22.3°
Maximum altitude 05:45:07 26° 210° (SSW) 4,602 10.7 -20.9°
Drops below altitude 10° 05:55:44 10° 160° (SSE) 4,643 11.4 -19.5°
Sets 05:59:25 0° 148° (SSE) 5,172 11.9 -19.0°
